Regional Weather Roundup
Issued by NWS

Home | Current Version | Previous Version | Graphics & Text | Print | Product List | Glossary On
Versions: 1 2 3 4 5 6 7 8 9 10 11 12 13 14 15 16 17 18 19 20 21 22 23 24 25 26 27 28 29 30 31 32 33 34 35 36 37 38 39 40 41 42 43 44 45 46 47 48 49 50
000
ASUS43 KLOT 180704
RWRIL

ILLINOIS REGIONAL WEATHER ROUNDUP
NATIONAL WEATHER SERVICE CHICAGO/ROMEOVILLE IL
200 AM CDT WED OCT 18 2017

NOTE: "FAIR" INDICATES FEW OR NO CLOUDS BELOW 12,000 FEET WITH NO
SIGNIFICANT WEATHER AND/OR OBSTRUCTIONS TO VISIBILITY.

* THESE STATIONS ARE NOT UNDER NWS QUALITY CONTROL. THEY ALSO MAY NOT
  REPORT WEATHER SUCH AS PRECIPITATION OR FOG.

ILZ001-002-007-009-015-016-024-180800-
NORTHWEST ILLINOIS

CITY           SKY/WX    TMP DP  RH WIND       PRES   REMARKS
MOLINE         CLEAR     54  41  61 S8        30.10S
STERLING*      CLEAR     51  42  71 CALM        N/A
SAVANNA*       CLEAR     47  42  81 SE6       30.10F
$$

ILZ003-004-008-010-011-017-018-180800-
NORTH CENTRAL ILLINOIS

CITY           SKY/WX    TMP DP  RH WIND       PRES   REMARKS
ROCKFORD       CLEAR     48  41  76 S3        30.14S
FREEPORT*      CLEAR     50  41  71 S10       30.12S
ROCHELLE*      CLEAR     47  42  81 S5        30.13F
DE KALB*       CLEAR     45  41  86 S8        30.15S
PERU*          CLEAR     47  39  73 S8        30.15S
$$

ILZ005-006-012>014-019>023-180800-
NORTHEAST ILLINOIS

CITY           SKY/WX    TMP DP  RH WIND       PRES   REMARKS
CHICAGO-OHARE  CLEAR     54  40  59 SW10      30.14S
CHICAGO-MIDWAY CLEAR     53  41  63 S6        30.16R
AURORA         CLEAR     45  41  86 S3        30.15F
LANSING*       CLEAR     46  41  84 S7        30.18S
JOLIET*        CLEAR     52  42  69 S3        30.16S
WAUKEGAN       CLEAR     51  42  71 SW7       30.13R
DUPAGE AIRPORT CLEAR     48  42  80 S5        30.14S
KANKAKEE*      CLEAR     47  39  76 S5        30.19S
WHEELING       CLEAR     54  42  64 S6        30.15S
MORRIS*        CLEAR     46  39  78 S5        30.16S
NORTHERLY ISL    N/A     55  38  52 SW6         N/A
$$

LMZ740>746-180800-
SOUTHERN LAKE MICHIGAN

STATION/POSITION SKY/WX   TEMP    WIND        PRES    VSBY  WAVE
                          AIR SEA DIR/SP/G                  HT/PER
                          (F)     (DEG/KT/KT) (MB)    (MI)  (FT/S)
SOUTHERN BUOY              62 61  230/ 19/ 21 1020.2          4/ 5
WILMETTE HARBOR            57 57  190/ 10/ 12   N/A           2/ 3
HARRISON CRIB              58     200/ 15/ 18   N/A
BURNHAM HARBOR             55     210/  5/ 11   N/A
CALUMET HARBOR             55     190/  5/  7 1020.8R
BURNS HARBOR               54     190/  8/ 12 1022.4S
MICHIGAN CITY              54     170/ 13/ 15   N/A
MICHIGAN CITY 6N           56 57  200/ 12/ 16   N/A           2/ 3
ST. JOSEPH                 56 58  200/ 12/ 14 1022.4R         3/ 4
$$

ILZ025>027-034>036-040-047-049-050-058-095>099-180800-
WEST-CENTRAL ILLINOIS

CITY           SKY/WX    TMP DP  RH WIND       PRES   REMARKS
QUINCY         CLEAR     52  40  63 S7        30.13F
GALESBURG*     CLEAR     51  41  70 S7        30.13F
MACOMB*        CLEAR     49  42  75 S8        30.15F
JACKSONVILLE*  CLEAR     50  41  70 S6        30.17S
PITTSFIELD*    CLEAR     47  40  77 S3        30.17S
$$

ILZ028>032-037-038-041>044-048-051>054-059>061-180800-
CENTRAL ILLINOIS

CITY           SKY/WX    TMP DP  RH WIND       PRES   REMARKS
PONTIAC        CLEAR     49  43  80 S7        30.18S
BLOOMINGTON    CLEAR     44  40  85 S9        30.19S
DECATUR        CLEAR     48  41  76 S8        30.20F
PEORIA         CLEAR     50  41  71 S8        30.15F
LACON*         CLEAR     53  40  61 S7        30.14S
LINCOLN*       CLEAR     49  42  78 S7        30.19S
SPRINGFIELD    CLEAR     52  42  69 S9        30.18S
TAYLORVILLE    CLEAR     47  42  80 S5        30.20S
$$

ILZ033-039-045-046-055>057-062-063-180800-
EAST-CENTRAL ILLINOIS

CITY           SKY/WX    TMP DP  RH WIND       PRES   REMARKS
CHAMPAIGN      CLEAR     50  40  68 S12       30.21S
DANVILLE*      CLEAR     47  39  74 S7        30.19S
RANTOUL*       CLEAR     46  42  85 S5        30.20S
MATTOON        CLEAR     49  42  77 S6        30.21F
PARIS*         CLEAR     42  39  91 S7        30.24S
$$

ILZ079-100>102-180800-
SOUTHWEST ILLINOIS

CITY           SKY/WX    TMP DP  RH WIND       PRES   REMARKS
ALTON          CLEAR     42  41  98 CALM      30.21R
BELLEVILLE     CLEAR     43  41  93 CALM      30.24R
CAHOKIA*       CLEAR     48  40  73 CALM      30.20S
SPARTA*        CLEAR     45  41  87 SE3       30.23S
$$

ILZ064>066-069>071-074>076-080>082-084>086-088>090-092>094-180800-
SOUTH-CENTRAL ILLINOIS

CITY           SKY/WX    TMP DP  RH WIND       PRES   REMARKS
CARBONDALE     CLEAR     39  39 100 S3        30.22F
EFFINGHAM*     CLEAR     42  42  99 CALM      30.24S
MARION         CLEAR     44  44  97 CALM      30.24S
MT. VERNON     CLEAR     38  37  97 CALM      30.23S
CENTRALIA*     CLEAR     42  41  97 CALM      30.22S
SALEM*         PTCLDY    45  42  86 CALM      30.23R
METROPOLIS*    CLEAR     42  41  98 CALM      30.25S
$$

ILZ067-068-072-073-078-083-087-091-180800-
SOUTHEAST ILLINOIS

CITY           SKY/WX    TMP DP  RH WIND       PRES   REMARKS
LAWRENCEVILLE  CLEAR     45  43  93 CALM      30.25S
FLORA*         CLEAR     44  42  93 CALM      30.24S
FAIRFIELD*     CLEAR     44  42  94 CALM      30.23S
HARRISBURG*    CLEAR     41  41  99 CALM      30.24F
ROBINSON*      CLEAR     38  37  99 CALM      30.25S
CARMI*         CLEAR     41  40  97 CALM      30.23S
$$

ABBREVIATIONS USED IN REMARKS
   TC - TEMPERATURE IN CELSIUS
  WCI - WIND CHILL INDEX
   HX - HEAT INDEX
  VSB - VISIBILITY
$$





USA.gov is the U.S. government's official web portal to all federal, state and local government web resources and services.